www.pogodaiklimat.ru

Погода и климат >> Архив погоды >> Франция >> Ле-Ман


ПОГОДА в Ле-Мане

  • Прогноз погоды в Ле-Мане
  • Монитор погоды в Ле-Мане

АРХИВ ПОГОДЫ в Ле-Мане

Время (UTC), дата Ветер
(напр.,м/с)
 
Видим.   Явления Облачность Т
(С)
Тd
(С)
f
(%)
Тe
(С)
Тes
(С)
Комфортность P
(гПа)
Po
(гПа)
Тmin
(С)
Tmax
(С)
R
(мм)
R24
(мм)
S
(см)
10 17.06 Ю 1 20 км н/о +23.1 +13.3 54 +26 +26 жарко 1019.1 1013.0
11 17.06 З 1 20 км н/о +24.1 +11.8 46 +26 +26 жарко 1018.4 1012.4
12 17.06 ЮВ 1
{5}
20 км н/о +25.2 +13.1 47 +27 +27 жарко 1017.9 1011.9 0
13 17.06 ЮВ 1 20 км н/о +26.3 +12.4 42 +28 +28 жарко 1017.3 1011.3
14 17.06 Ю 1 20 км н/о +26.8 +11.7 39 +28 +28 жарко 1016.9 1010.9
15 17.06 В 1
{6}
20 км н/о +26.7 +11.6 39 +28 +28 жарко 1016.4 1010.4 0
16 17.06 ЮВ 1
{4}
20 км н/о +25.9 +10.9 39 +27 +27 жарко 1015.9 1009.9
17 17.06 ЮВ 1 20 км н/о +27.4 +11.0 36 +28 +28 жарко 1015.3 1009.4
18 17.06 В 1
{5}
20 км н/о +26.1 +11.1 39 +27 +27 жарко 1015.2 1009.2 +13.2 +27.7 0
19 17.06 В 1 20 км н/о +25.4 +11.6 42 +27 +27 жарко 1015.0 1009.0
20 17.06 В 1 20 км н/о +23.7 +11.7 47 +25 +25 комфорт 1015.2 1009.2
21 17.06 В 1
{3}
20 км н/о +21.0 +13.4 62 +25 +25 комфорт 1015.4 1009.3 0
22 17.06 В 1 20 км н/о +19.6 +13.1 66 +22 +22 комфорт 1015.3 1009.2
23 17.06 СВ 1 20 км н/о +18.9 +13.1 69 +21 +21 комфорт 1015.5 1009.4
00 18.06 СВ 1
{4}
20 км н/о +18.5 +13.6 73 +20 +20 1015.3 1009.2 0
01 18.06 С 1 20 км н/о +17.9 +14.0 78 +19 +19 1014.8 1008.7
02 18.06 СВ 1 20 км 10/10
[]
+17.3 +14.0 81 +18 +18 1014.2 1008.1
03 18.06 С 1
{4}
20 км 10/0
[]
+16.9 +13.8 82 +18 +18 1013.8 1007.7 0
04 18.06 СВ 2 20 км 10/10
[]
+16.4 +13.7 84 +17 +17 1013.5 1007.3
05 18.06 С 1 20 км 9/9
[]
+16.8 +13.5 81 +18 +18 1013.7 1007.6
06 18.06 СВ 1
{4}
н/о 9/0
[]
+17.3 +13.8 80 +18 +18 1013.3 1007.2 +16.4 +26.3 0
07 18.06 СВ 2 20 км н/о +18.9 +14.2 74 +21 +21 комфорт 1013.3 1007.2
08 18.06 В 2 20 км н/о +22.1 +15.0 64 +26 +26 душно 1012.5 1006.5
09 18.06 В 2
{5}
20 км 8/0
[]
+23.1 +14.9 60 +27 +30 душно 1011.8 1005.8 0
10 18.06 В 2 20 км 8/8
[]
+24.2 +14.9 56 +27 +30 жарко 1011.3 1005.3
11 18.06 В 2 20 км 8/8
[]
+27.0 +15.7 50 +30 +34 душно 1010.6 1004.7
12 18.06 В 2
{8}
20 км 10/0
[]
+27.5 +15.5 48 +30 +30 жарко 1010.0 1004.1 0
13 18.06 В 2 20 км 10/10
[]
+28.2 +14.8 44 +31 +31 душно 1009.5 1003.6
14 18.06 ЮВ 2 20 км н/о +29.1 +15.2 43 +32 +32 душно 1009.4 1003.5
15 18.06 ЮВ 3
{9}
20 км н/о +29.7 +13.5 37 +31 +31 жарко 1008.8 1002.9 0
16 18.06 ЮВ 2 20 км н/о +29.7 +16.5 45 +33 +33 душно 1007.9 1002.1
17 18.06 Ю 2 20 км 9/9
[]
+30.6 +12.9 34 +32 +32 жарко 1007.4 1001.6
18 18.06 ЮВ 2
{7}
20 км н/о +30.1 +12.5 34 +31 +31 жарко 1007.0 1001.2 +17.3 +31.1 0
19 18.06 ЮВ 1 20 км н/о +28.5 +14.3 42 +31 +31 душно 1006.9 1001.0
20 18.06 ЮВ 1 20 км н/о +26.3 +15.4 51 +29 +29 жарко 1006.8 1000.9
21 18.06 Ю 1
{4}
20 км н/о +24.2 +15.9 60 +27 +27 жарко 1007.2 1001.2 0
22 18.06 Ю 1 20 км н/о +22.3 +16.1 68 +26 +26 жарко 1006.9 1000.9
23 18.06 Ю 1 20 км н/о +21.0 +15.5 71 +26 +26 душно 1006.7 1000.7
00 19.06 Ю 1
{4}
20 км н/о +20.0 +15.4 75 +24 +24 комфорт 1006.9 1000.9 0
01 19.06 Ю 1 20 км н/о +19.2 +15.7 80 +22 +22 комфорт 1007.7 1001.6
02 19.06 Ю 1 20 км 10/10
[]
+19.1 +16.0 82 +22 +22 комфорт 1007.7 1001.6
03 19.06 Ю 2
{7}
20 км н/о +19.1 +15.4 79 +21 +21 комфорт 1008.4 1002.3 0
04 19.06 ЮЗ 1 20 км н/о +18.8 +15.1 79 +21 +21 комфорт 1008.4 1002.3
05 19.06 З 1 19 км н/о +18.1 +15.0 82 +19 +19 1008.0 1001.9
06 19.06 ЮЗ 2
{7}
20 км 9/0
[]
+18.9 +14.6 76 +21 +21 комфорт 1008.5 1002.4 +18.0 +30.1 0
07 19.06 З 2 19 км н/о +19.6 +15.0 75 +22 +22 комфорт 1008.9 1002.8
08 19.06 З 3 19 км н/о +20.9 +15.2 70 +25 +25 комфорт 1009.5 1003.5
09 19.06 ЮЗ 2
{9}
20 км 10/10 600 м
[]
+21.0 +14.9 68 +25 +26 комфорт 1009.7 1003.7 0
10 19.06 ЮЗ 2 20 км 10/9 800 м
[]
+22.3 +14.9 63 +26 +27 жарко 1009.5 1003.5
11 19.06 ЮЗ 3 20 км 9/9 1000 м
[]
+22.8 +13.8 57 +26 +28 жарко 1010.1 1004.1
12 19.06 ЮЗ 4
{14}
20 км 10/10 1000 м
[]
+24.2 +12.8 49 +26 +29 жарко 1010.1 1004.1 0
13 19.06 ЮЗ 4 20 км 9/4 1260 м
[]
+23.6 +13.2 52 +26 +30 жарко 1010.1 1004.1
14 19.06 ЮЗ 4 20 км 8/6 1200 м
[]
+24.6 +13.5 50 +27 +30 жарко 1010.1 1004.1
15 19.06 СЗ 3
{12}
20 км 9/9 1000 м
[]
+22.1 +14.2 61 +25 +28 комфорт 1010.5 1004.5 0
16 19.06 З 1 20 км 9/4 1050 м
[]
+19.2 +16.6 85 +22 +25 комфорт 1010.7 1004.6 1
17 19.06 З 2 20 км 9/3 1410 м
[]
+19.3 +16.1 82 +22 +24 комфорт 1011.1 1005.0
18 19.06 ЮЗ 1
{7}
20 км 10/10 1500 м
[]
+18.4 +16.6 89 +20 +20 1011.3 1005.2 +18.3 +25.3 2
19 19.06 З 1 20 км 9/8 800 м
[]
+18.0 +16.2 89 +19 +19 1011.7 1005.6 0.0
20 19.06 З 2 20 км морось 10/9 270 м
[]
+17.3 +15.8 91 +18 +18 1012.2 1006.1 0.4
21 19.06 ЮЗ 1
{5}
10 км 10/10 100 м
[]
+16.6 +15.6 94 +18 +18 1012.8 1006.7 1
22 19.06 З 1 19 км 10/10 270 м
[]
+16.6 +15.3 92 +17 +17 1012.8 1006.7 0.4
23 19.06 ЮЗ 1 20 км 10/10 240 м
[]
+16.6 +15.6 94 +18 +18 1012.8 1006.7
00 20.06 З 2
{7}
4100 м дождь 10/10 100 м
[]
+15.9 +14.8 93 +16 +16 1013.2 1007.0 0.6
01 20.06 З 1 19 км 10/10 210 м
[]
+14.8 +13.7 93 +15 +15 1013.6 1007.4 0.0
02 20.06 З 1 5000 м слаб. морось 10/10 210 м
[]
+14.2 +13.2 94 +14 +14 1014.0 1007.8 0.6
03 20.06 З 1
{4}
11 км морось 10/10 300 м
[]
+14.2 +13.1 93 +15 +15 1014.3 1008.1 0.8
04 20.06 З 1 19 км 9/1 180 м
[]
+13.9 +12.8 93 +14 +14 1014.6 1008.4 0.0
05 20.06 ЮЗ 1 15 км 9/6 180 м
[]
+13.8 +12.9 94 +14 +14 1015.2 1009.0
06 20.06 З 2
{5}
13 км 10/10 200 м
[]
+14.2 +12.6 90 +14 +14 1015.7 1009.5 +13.7 +18.4 3 0
07 20.06 З 2 18 км 10/10 300 м
[]
+15.2 +12.5 84 +15 +15 1016.1 1009.9
08 20.06 З 2 19 км 8/8 480 м
[]
+16.0 +12.2 78 +16 +18 1016.3 1010.1
09 20.06 СЗ 1
{5}
20 км н/о +17.5 +11.3 67 +19 +19 1016.5 1010.3 0
10 20.06 З 1 20 км 8/8 900 м
[]
+18.0 +9.6 58 +19 +23 1016.6 1010.5
11 20.06 З 2 20 км 9/9 1080 м
[]
+18.7 +9.2 54 +20 +21 1017.1 1011.0
12 20.06 З 2
{7}
20 км н/о +20.0 +9.3 50 +22 +22 комфорт 1017.0 1010.9 0
13 20.06 СЗ 2 20 км 8/8 1470 м
[]
+19.9 +7.9 46 +22 +25 комфорт 1016.9 1010.8
14 20.06 СЗ 2 20 км н/о +21.3 +7.5 41 +22 +22 комфорт 1016.8 1010.7
15 20.06 З 2
{8}
20 км н/о +21.3 +7.1 40 +22 +22 комфорт 1016.7 1010.6 0
16 20.06 СЗ 2 20 км н/о +21.8 +6.8 38 +23 +23 комфорт 1016.7 1010.6
17 20.06 СЗ 2 20 км н/о +21.3 +7.5 41 +22 +22 комфорт 1016.7 1010.6
18 20.06 С 2
{7}
20 км н/о +20.8 +7.8 43 +23 +23 комфорт 1016.8 1010.7 +14.3 +22.3 0
19 20.06 СЗ 1 20 км н/о +20.6 +7.6 43 +23 +23 комфорт 1017.1 1011.0
20 20.06 С 2 20 км н/о +18.0 +8.3 53 +19 +19 1017.7 1011.5
21 20.06 С 2
{8}
20 км н/о +17.0 +8.4 57 +18 +18 1018.4 1012.2 0
22 20.06 С 2 20 км н/о +16.2 +8.7 61 +17 +17 1018.7 1012.5
23 20.06 С 1 20 км н/о +15.3 +8.8 65 +16 +16 1019.1 1012.9
00 21.06 СВ 1
{5}
20 км н/о +14.2 +8.6 69 +15 +15 1019.5 1013.3 0
01 21.06 С 1 20 км н/о +13.6 +8.6 72 +14 +14 1019.6 1013.3
02 21.06 В 1 20 км н/о +12.1 +8.4 78 +12 +12 1019.7 1013.4
03 21.06 штиль 0
{2}
20 км н/о +10.4 +8.5 88 +10 +10 1019.8 1013.5 0
04 21.06 В 1 20 км н/о +10.8 +8.4 85 +11 +11 1020.0 1013.7
05 21.06 штиль 0 20 км н/о +10.5 +8.4 87 +10 +10 1020.3 1014.0
06 21.06 С 2
{5}
20 км н/о +13.9 +9.1 73 +14 +14 1020.4 1014.1 +10.2 +21.2 0
07 21.06 СВ 2 20 км н/о +15.2 +9.5 69 +15 +15 1020.8 1014.6
08 21.06 СВ 2 20 км н/о +16.7 +9.9 64 +17 +17 1021.0 1014.8
09 21.06 С 1
{5}
20 км н/о +18.3 +9.4 56 +20 +20 1020.9 1014.7 0
10 21.06 С 2 20 км н/о +20.1 +9.3 50 +22 +22 комфорт 1020.7 1014.6
11 21.06 С 2 20 км н/о +20.5 +8.2 45 +23 +23 комфорт 1020.6 1014.5
12 21.06 С 1
{7}
20 км н/о +21.2 +7.4 41 +22 +22 комфорт 1020.4 1014.3 0
13 21.06 СВ 1 20 км 9/9 1500 м
[]
+21.4 +6.5 38 +22 +24 комфорт 1020.4 1014.3
14 21.06 СВ 2 20 км 10/10 1500 м
[]
+21.3 +6.4 38 +22 +22 комфорт 1020.1 1014.0
15 21.06 С 2
{6}
20 км н/о +23.2 +6.9 35 +24 +24 комфорт 1019.9 1013.8 0
16 21.06 С 2 20 км 10/10 2000 м
[]
+23.4 +6.6 34 +24 +24 комфорт 1019.8 1013.7
17 21.06 СВ 1 20 км н/о +22.6 +5.9 34 +23 +23 комфорт 1019.8 1013.7
18 21.06 СВ 2
{7}
20 км 9/0 2000 м
[]
+21.4 +7.2 40 +22 +22 комфорт 1019.9 1013.8 +13.9 +23.7 0
19 21.06 СВ 2 20 км 10/10 2000 м
[]
+21.6 +7.8 41 +23 +23 комфорт 1020.1 1014.0
20 21.06 С 2 20 км н/о +19.9 +8.6 48 +22 +22 комфорт 1020.4 1014.3
21 21.06 С 2
{6}
20 км н/о +18.2 +9.8 58 +19 +19 1021.0 1014.8 0
22 21.06 С 2 20 км н/о +17.3 +10.2 63 +18 +18 1021.3 1015.1
23 21.06 С 2 20 км н/о +16.0 +10.5 70 +16 +16 1021.5 1015.3
00 22.06 С 2
{5}
20 км н/о +15.4 +10.6 73 +16 +16 1021.5 1015.3 0
01 22.06 С 2 20 км н/о +14.4 +10.2 76 +14 +14 1021.3 1015.0
02 22.06 С 2 20 км н/о +13.5 +9.9 79 +13 +13 1021.0 1014.7
03 22.06 С 1
{4}
20 км н/о +12.9 +9.5 80 +13 +13 1020.8 1014.5 0
04 22.06 С 1 20 км н/о +12.5 +9.1 80 +13 +13 1020.9 1014.6
05 22.06 С 1 20 км н/о +13.1 +9.3 78 +13 +13 1021.1 1014.8
06 22.06 СВ 2
{4}
20 км н/о +14.5 +9.3 71 +14 +14 1021.0 1014.7 +12.5 +22.0 0
07 22.06 СВ 2 20 км н/о +16.4 +9.6 64 +17 +17 1020.9 1014.7
08 22.06 В 2 20 км н/о +18.4 +9.7 57 +19 +19 1020.7 1014.5
09 22.06 В 2
{6}
20 км н/о +20.6 +8.6 46 +23 +23 комфорт 1020.0 1013.9 0
10 22.06 СВ 2 20 км н/о +21.9 +6.1 36 +23 +23 комфорт 1019.7 1013.6
11 22.06 В 2 20 км н/о +22.8 +7.3 37 +24 +24 комфорт 1019.4 1013.3
12 22.06 СВ 2
{8}
20 км н/о +23.8 +8.2 37 +24 +24 комфорт 1018.8 1012.8 0
13 22.06 В 2 20 км н/о +24.4 +7.5 34 +25 +25 комфорт 1018.1 1012.1
14 22.06 В 2 20 км н/о +24.5 +8.0 35 +25 +25 комфорт 1017.7 1011.7
15 22.06 В 2
{7}
20 км н/о +25.0 +8.0 34 +25 +25 комфорт 1017.4 1011.4 0
16 22.06 В 2 20 км н/о +24.5 +7.6 34 +25 +25 комфорт 1016.7 1010.7
17 22.06 СВ 2 20 км н/о +24.5 +7.6 34 +25 +25 комфорт 1016.2 1010.2
18 22.06 СВ 2
{7}
20 км н/о +24.4 +8.4 36 +25 +25 комфорт 1016.3 1010.3 +14.5 +25.3 0
19 22.06 СВ 2 20 км н/о +23.3 +9.3 41 +25 +25 комфорт 1016.1 1010.1
20 22.06 СВ 2 20 км н/о +21.8 +9.7 46 +23 +23 комфорт 1016.3 1010.2
21 22.06 СВ 2
{6}
20 км н/о +20.6 +10.4 52 +23 +23 комфорт 1016.4 1010.3 0
22 22.06 СВ 2 20 км н/о +19.6 +11.1 58 +22 +22 комфорт 1016.5 1010.4
23 22.06 В 1 20 км н/о +18.1 +11.6 66 +19 +19 1016.4 1010.3
00 23.06 В 2
{4}
20 км н/о +17.4 +12.1 71 +18 +18 1016.1 1009.9 0
01 23.06 В 1 20 км н/о +16.8 +12.5 76 +18 +18 1015.7 1009.5
02 23.06 В 1 20 км н/о +16.3 +12.6 79 +17 +17 1015.6 1009.4
03 23.06 СВ 2
{5}
20 км н/о +16.2 +12.9 81 +17 +17 1015.0 1008.8 0
04 23.06 В 1 20 км н/о +15.7 +13.0 84 +17 +17 1014.9 1008.7
05 23.06 В 1 20 км н/о +16.4 +13.1 81 +18 +18 1014.8 1008.6
06 23.06 СВ 1
{4}
20 км н/о +17.6 +13.5 77 +19 +19 1014.7 1008.6 +15.5 +24.5 0
07 23.06 В 2 20 км 8/8
[]
+19.6 +14.4 72 +22 +23 комфорт 1014.5 1008.4
08 23.06 В 2 20 км н/о +21.8 +15.2 66 +25 +25 комфорт 1014.0 1008.0
09 23.06 В 2
{7}
20 км 8/0
[]
+22.5 +16.1 67 +27 +29 душно 1013.6 1007.6 0
10 23.06 В 2 20 км 8/3 870 м
[]
+23.9 +15.7 60 +27 +34 жарко 1013.6 1007.6
11 23.06 В 2 20 км 8/3 1020 м
[]
+25.2 +15.5 55 +28 +37 жарко 1013.1 1007.1
12 23.06 ЮВ 2
{7}
20 км н/о +25.8 +14.9 51 +29 +29 душно 1012.8 1006.8 0
13 23.06 ЮВ 2 20 км 9/9
[]
+26.3 +14.7 49 +29 +31 жарко 1012.5 1006.6
14 23.06 ЮВ 2 20 км н/о +27.7 +14.7 45 +30 +30 жарко 1012.4 1006.5
15 23.06 ЮВ 3
{8}
20 км н/о +29.0 +14.4 41 +31 +31 жарко 1012.2 1006.3 0
16 23.06 ЮВ 2 20 км н/о +29.4 +14.4 40 +31 +31 жарко 1011.5 1005.6
17 23.06 ЮВ 3 20 км н/о +28.9 +14.7 42 +31 +31 жарко 1011.5 1005.6
18 23.06 ЮВ 2
{9}
20 км 9/0
[]
+28.3 +14.9 44 +31 +31 душно 1011.7 1005.8 +17.7 +29.5 0
19 23.06 В 2 20 км 10/10
[]
+27.5 +15.5 48 +30 +30 жарко 1011.9 1006.0
20 23.06 В 1 20 км 10/10
[]
+26.2 +15.6 52 +29 +29 жарко 1012.1 1006.2
21 23.06 Ю 1
{4}
20 км н/о +24.8 +15.7 57 +28 +28 жарко 1013.3 1007.3 0
22 23.06 Ю 1 20 км 10/10
[]
+24.2 +15.7 59 +27 +27 жарко 1013.4 1007.4
23 23.06 ЮЗ 1 20 км 10/10
[]
+23.6 +16.1 63 +27 +27 жарко 1013.7 1007.7
00 24.06 ЮЗ 1
{4}
20 км 8/0
[]
+22.4 +16.4 69 +27 +27 душно 1014.2 1008.2 0
01 24.06 З 1 20 км н/о +20.4 +16.2 77 +25 +25 комфорт 1014.4 1008.3
02 24.06 ЮЗ 1 20 км 10/10
[]
+19.8 +16.1 79 +23 +23 комфорт 1014.7 1008.6
03 24.06 З 1
{3}
20 км 10/0 2000 м
[]
+19.6 +16.1 80 +23 +23 комфорт 1014.6 1008.5 0
05 24.06 ЮЗ 1 20 км 10/10
[]
+19.3 +16.3 83 +22 +22 комфорт 1015.8 1009.7
06 24.06 СВ 1
{4}
20 км 9/0
[]
+19.3 +16.1 82 +23 +23 комфорт 1015.6 1009.5 +18.9 +28.3 0
07 24.06 СВ 1 20 км 8/8
[]
+21.4 +16.8 75 +25 +26 комфорт 1015.4 1009.3
08 24.06 З 2 20 км 9/9
[]
+22.9 +15.2 62 +27 +28 душно 1016.9 1010.9

 

Местоположение метеостанции Ле-Ман (Франция): широта 47.93 долгота 0.20 высота над уровнем моря 52 м.

В архиве по умолчанию представлена погода в Ле-Мане за последнюю неделю. Архивные данные за месяц целиком и за предыдущие месяцы, начиная с января 2011 года, Вы можете получить, выбрав интересующий диапазон дат из раскрывающегося списка и нажав кнопку "Ввод!".


*Определитесь, кто Вы:
робот инопланетянин человек

Внимание! Время в таблицах - всемирное. Для получения местного времени необходимо прибавить поправку, которая равна 1 ч.

Смотрите также архив погоды в соседних городах и на ближайших метеорологических станциях:

Погода в Алансоне (Франция) (56 км)
Погода в Марсе (Франция) (57 км)
Погода в Туре (Франция) (67 км)
Погода в Лавале (Франция) (70 км)
Погода в Бокузе (Франция) (78 км)
Погода в Блуа (Франция) (81 км)
Погода в Шатодёне (Франция) (89 км)
Погода в Шартре (Франция) (114 км)
Погода в Тусю-ле-Нобле (Франция) (115 км)
Погода в Орлеане (Франция) (118 км)

Пояснения к столбцам:

Ветер - указаны скорость ветра в м/с - средняя за 10 мин, порывы в срок и между сроками (в фигурных скобках) и направление, откуда дует ветер: С - северный, СВ - северо-восточный, В - восточный, ЮВ - юго-восточный, Ю - южный, ЮЗ - юго-западный, З - западный, СЗ - северо-западный.
Видимость - горизонтальная дальность видимости в метрах или километрах. При видимости от 1 до 10 км при отсутствии осадков обычно наблюдается дымка, при ухудшении видимости до 1 км и менее - туман. В сухую погоду видимость может ухудшаться дымом, пылью или мглою.
Явления - указаны атмосферные явления, наблюдавшиеся в срок или в последний час перед сроком; фигурными скобками обозначены явления, наблюдавшиеся между сроками (за 1-3 часа до срока); квадратными скобками обозначены град или гололедные отложения с указанием их диаметра в мм.
Облачность - указаны через наклонную черту общая и нижняя облачность в баллах и высота нижней границы облаков в метрах; квадратными скобками обозначены формы облаков: Ci - перистые, Cs - перисто-слоистые, Cc - перисто-кучевые, Ac - высококучевые, As - высокослоистые, Sc - слоисто-кучевые, Ns - слоисто-дождевые, Cu - кучевые, Cb - кучево-дождевые. Подробнее классификацию облаков см. в Атласе облаков (PDF).
T - Температура воздуха - температура, измеренная на высоте 2 м над землей.
Td - Температура точки росы - температура, при понижении до которой содержащийся в воздухе водяной пар достигнет насыщения.
f - Относительная влажность воздуха - влажноcть воздуха, измеренная на высоте 2 м над землей.
Te - Эффективная температура - температура, которую ощущает одетый по сезону человек в тени. Характеристика душности погоды. При расчете учитывается влияние влажности воздуха и скорости ветра на теплоощущения человека.
Tes - Эффективная температура на солнце - температура, которую ощущает человек, с поправкой на солнечный нагрев. Характеристика знойности погоды. Зависит от высоты солнца над горизонтом, облачности и скорости ветра. Ночью, в пасмурную погоду, а также при ветре 12 м/с и более поправка равна нулю.
P - Атмосферное давление - приведенное к уровню моря атмосферное давление.
Po - Атмосферное давление - измеренное на уровне метеостанции атмосферное давление.
Tmin - Минимальная температура - минимум температуры воздуха на высоте 2 м над землей.
Tmax - Максимальная температура - максимум температуры воздуха на высоте 2 м над землей.
R - Количество осадков - Количество выпавших осадков за период времени, мм. При наведении курсора мыши на число - период времени, за который выпало указанное количество осадков.
R24 - Количество осадков - Количество выпавших осадков за 24 часа, мм.
S - Снежный покров - Высота снежного покрова, см. При наведении курсора мыши на число - состояние снежного покрова и степень покрытия местности в баллах.